Location: Ajisawe
(8.4333°N, 4.3833°E)
Time: 10:04:47
(UTC+00:00)

Explorer 7 - All Passes

Search period start: 19 April 2021 00:00
Search period end: 29 April 2021 00:00
Orbit: 484 x 677 km, 50.3° (Epoch: 18 April)

Date Brightness Start Highest point End Pass type
(mag) Time Alt. Az. Time Alt. Az. Time Alt. Az.
19 Apr - 03:17:41 10° N 03:20:41 16° NE 03:23:43 10° E visible
19 Apr - 04:56:36 10° NW 05:01:14 44° SW 05:05:52 10° SSE visible
19 Apr - 17:03:21 10° SSW 17:07:03 64° SE 17:10:50 10° NE daylight
20 Apr - 03:20:59 10° N 03:25:12 29° NE 03:29:27 10° ESE visible
20 Apr - 05:01:47 10° WNW 05:05:38 23° SW 05:09:27 10° S visible
20 Apr - 17:07:49 10° SW 17:11:27 52° NW 17:15:11 10° NNE daylight
21 Apr - 03:24:54 10° NNW 03:29:39 56° NE 03:34:27 10° SE visible
21 Apr - 05:08:12 10° WSW 05:10:00 12° SW 05:11:49 10° SSW visible
21 Apr - 15:33:27 10° SSE 15:35:42 15° SE 15:37:57 10° E daylight
21 Apr - 17:12:53 10° WSW 17:15:55 23° NW 17:19:01 10° N daylight
22 Apr - 03:29:13 10° NW 03:34:03 74° SW 03:38:56 10° SSE visible
22 Apr - 15:36:41 10° SSW 15:40:04 33° SE 15:43:29 10° ENE daylight
22 Apr - 17:19:12 10° WNW 17:20:26 11° NW 17:21:41 10° NNW daylight
23 Apr - 01:54:36 10° N 01:57:57 19° NE 02:01:20 10° E night (unlit)
23 Apr - 03:33:58 10° WNW 03:38:26 37° SW 03:42:57 10° SSE visible
23 Apr - 15:40:44 10° SW 15:44:27 81° SE 15:48:12 10° NE daylight
24 Apr - 01:58:04 10° NNW 02:02:25 34° NE 02:06:50 10° ESE night (unlit)
24 Apr - 03:39:19 10° W 03:42:49 20° SW 03:46:20 10° S night (unlit)
24 Apr - 15:45:19 10° WSW 15:48:51 41° NW 15:52:25 10° NNE daylight
25 Apr - 02:02:05 10° NNW 02:06:50 67° NE 02:11:41 10° SE night (unlit)
25 Apr - 14:10:23 10° S 14:13:04 19° SE 14:15:44 10° E daylight
25 Apr - 15:50:35 10° W 15:53:18 19° NW 15:56:03 10° N daylight
26 Apr - 00:29:08 10° NNE 00:30:40 11° NE 00:32:10 10° ENE night (unlit)
26 Apr - 02:06:31 10° NW 02:11:13 62° SW 02:16:03 10° SSE night (unlit)
26 Apr - 14:13:53 10° SSW 14:17:27 41° SE 14:20:58 10° NE daylight
27 Apr - 00:31:35 10° N 00:35:09 21° NE 00:38:49 10° E night (unlit)
27 Apr - 02:11:22 10° WNW 02:15:36 31° SW 02:19:55 10° S night (unlit)
27 Apr - 14:18:03 10° SW 14:21:49 80° NW 14:25:32 10° NE daylight
28 Apr - 00:35:13 10° NNW 00:39:36 40° NE 00:44:08 10° ESE night (unlit)
28 Apr - 02:16:58 10° W 02:19:59 17° SW 02:23:04 10° SSW night (unlit)
28 Apr - 12:45:12 10° SE 12:46:00 11° SE 12:46:47 10° ESE daylight
28 Apr - 14:22:48 10° WSW 14:26:13 33° NW 14:29:37 10° NNE daylight
